Location: Stockholm
(59.3330°N, 18.0500°E)
Time: 13:04:36
(UTC+01:00)

Envisat - Pass Details

Date: 30 November 2022
Orbit: 763 x 765 km, 98.2° (Epoch: 29 January)

Event Time Altitude Azimuth Distance (km) Brightness Sun altitude
Rises 02:09:36 0° 26° (NNE) 3,249 6.9 -43.5°
Reaches altitude 10° 02:14:07 10° 63° (ENE) 2,315 6.1 -43.1°
Maximum altitude 02:15:20 11° 77° (ENE) 2,259 6.0 -42.9°
Enters shadow 02:15:58 11° 85° (E) 2,273 5.9 -42.9°
